METEOR 2-11 DEB, 40706

Orbit data source: Space-Track

METEOR 2-11 DEB, 40706 is space debris in LEO originally from a launch on Thu, 05 Jul 1984 UTC launched from the Plesetsk Missile And Space Complex (PKMTR). Debris objects in space refer to the collection of defunct objects orbiting the Earth. Examples of debris include non-operational satellites, rocket bodies, and fragments generated from explosions, collisions, or faulty payload assembly.

Loading next visibility...
Identifier
40706, 1984-072H
Orbit
LEO
Last TLE update
1 day ago
Origin
Manufacturer
Unknown
Mission
Spacecraft
Bus & Motor
Unknown
Mass
Unknown
Launch date (UTC)
1984-07-05 (41 years ago)
Launch vehicle
Unknown
Launch site
Plesetsk Missile And Space Complex (PKMTR)
Object type
Payload
Rocket body
Debris
Shape & HBR
Unknown
Radar Cross Section
Small (<0.1 m²)

Expand to show TLE details & history

TLE from 1 day ago
0 METEOR 2-11 DEB
1 40706U 84072H   25127.85592287  .00002355  00000-0  16999-2 0  9992
2 40706  82.5198 338.6257 0017975  50.1328 310.1417 13.96237588532609
Epoch: 2025-05-07T20:32Z
Definitive object data (Epoch: 2025-05-07T20:32:31.735Z)
Latitude
0.00001°
Longitude
164.5587°
Altitude
901.341 km
Speed
7.406 km/s
True Right ascension
22h 34m 30s
True Declination
0° 00' 00"
Sunlit
Object was in daylight at TLE epoch
Visualization TLE readout
Latitude
-7.40043°
Longitude
162.48045°
Altitude
903.212 km
Speed
7.404 km/s
Apparent Right ascension
23h 35m 30s
Apparent Declination
-23° 53' 33"
Sunlit
Object is in daylight
Visualization observer readout
Local Sidereal Time
13:19:41
Azimuth
61.669° ENE
Elevation
-62.864°
Doppler factor
1
Orbital elements
Apogee altitude
917.079 km
Perigee altitude
890.9 km
Semi-major axis
7,282.126 km
Eccentricity
0.0017975
Inclination
82.5198°
RAAN
338.6257°
Arg. of periapsis
50.1328°
True anomaly
309.98401°
Mean anomaly
310.1417°
Eccentric anomaly
310.06288°
Mean motion
3.49266 °/min
BSTAR
0.0016999
Orbital period
103.07 mins
Loading maneuver chart data...
Loading SW <> Apogee altitude chart data...
Loading historical data...
Loading historical data...
Loading historical data...
Loading historical data...
Loading historical data...
Loading historical data...
Loading historical data...

METEOR 2-11 DEB Visibility forecast

Observer location: undefined°, undefined°

Span
Click to sort rows by Start time (UTC) header in descending order
Start Az.
Max El. time (UTC)
Max El. Az.
Max El.
End time (UTC)
End Az.
9 mins2025-05-09 13:56:04.085Z151.604° SSE2025-05-09 14:00:04.085Z100.221° ESE31.28°2025-05-09 14:05:04.085Z27.26° NE
8 mins2025-05-09 15:41:04.085Z239.282° WSW2025-05-09 15:44:04.085Z278.881° WNW24.787°2025-05-09 15:49:04.085Z342.608° N
8 mins2025-05-10 00:44:04.085Z26.485° NE2025-05-10 00:47:04.085Z65.662° ENE24.411°2025-05-10 00:52:04.085Z127.867° SE
8 mins2025-05-10 02:28:04.085Z326.585° NNW2025-05-10 02:31:04.085Z281.525° WNW32.255°2025-05-10 02:36:04.085Z206.765° SW
|